sat.trackr.live / text

‹ back to catalog

STARLINK-36033

NORAD 66893 · 2025-283R

PAYLOAD ACTIVE UNKNOWN

§ Identity

Operator
Country
US
Launch date
2025-12-04
Launch site
AFWTR
Launch vehicle
Mass (kg)
RCS (m²)

Purposes: comms

External: N2YO · Heavens-Above · Gunter

§ Orbital elements

Epoch: 2026-09-20T07:28:03.912960Z

Period
93.85 min
Inclination
53.1577°
Eccentricity
0.0001581
Mean motion
15.34401692 rev/d
Perigee alt
461.6 km
Apogee alt
463.8 km
Semi-major
6,840.8 km
B*
4.4951e-4
RAAN
198.6093°
Arg perigee
76.2591°
Mean anomaly
283.8588°
Rev number
4,566

§ Raw data

STARLINK-360331 66893U 25283R   26263.31115640  .00014842  00000+0  44951-3 0  99962 66893  53.1577 198.6093 0001581  76.2591 283.8588 15.34401692 45661

JSON: /api/v1/satellites/66893 · /tle

For live sub-satellite position, see the globe view (requires WebGL).

§ Visibility from observer

Set your observer location to see the next 7 days of passes ≥ 10°. The values pass through the URL so the page stays shareable.

No JS? Fill the form by hand. The geolocation button needs JavaScript.